CSN308 EHAM-ZGGG

Flight info

Callsign CSN308
Flight time N/A
Altitude 37000
Route ANDIK N873 BEDUM DCT DOSUR DCT EVONA P862 NETNA DCT TUKMA P989 MEGAS/K0889F370 P989 OBIBA P997 AKUGI T635 SADER T580 PIGUR/K0895F390 T580 ADMUR G117 XV R229 BA R104 ABK A308 TR P982 DARNO/K0876S1190 Y746 NIXAL/K0906S1250 B208 SQ/K0889S1220 W45 LYA/K0885S1250 W45 ML/K0887S1220 W45 NUPTI/K0887S1250 W45 VESUX/K0887S1220 W45 IKAVO IKAVO8
Aircraft A359/H-SDE2E3GHIJ1J3J4J5LM1ORWXY/LB1D1

Departure

Time 2026-05-06 11:23
Airport Amsterdam Airport Schiphol (EHAM)

Arrival

Time N/A
Airport Guangzhou Baiyun International Airport (ZGGG)
Time Latitude Longitude Altitude Speed Heading
2026-05-06 10:58 52.31353 4.75569 5 ft 0 kts 86°
2026-05-06 11:05 52.31353 4.75568 5 ft 0 kts 86°
2026-05-06 11:10 52.31352 4.75561 5 ft 2 kts 86°
2026-05-06 11:10 52.31351 4.75534 5 ft 2 kts 86°
2026-05-06 11:11 52.31350 4.75507 6 ft 2 kts 87°
2026-05-06 11:11 52.31347 4.75480 6 ft 2 kts 57°
2026-05-06 11:11 52.31336 4.75460 7 ft 2 kts 32°
2026-05-06 11:11 52.31321 4.75451 8 ft 2 kts 358°
2026-05-06 11:12 52.31304 4.75452 7 ft 2 kts 357°
2026-05-06 11:12 52.31297 4.75453 6 ft 0 kts 357°
2026-05-06 11:15 52.31299 4.75453 6 ft 1 kts 357°
2026-05-06 11:16 52.31302 4.75452 6 ft 0 kts 357°
2026-05-06 11:16 52.31305 4.75452 7 ft 1 kts 357°
2026-05-06 11:16 52.31321 4.75451 8 ft 4 kts 357°
2026-05-06 11:16 52.31365 4.75447 7 ft 9 kts 357°
2026-05-06 11:17 52.31434 4.75441 5 ft 11 kts 357°
2026-05-06 11:17 52.31498 4.75418 5 ft 8 kts 317°
2026-05-06 11:17 52.31507 4.75323 5 ft 10 kts 267°
2026-05-06 11:17 52.31503 4.75194 5 ft 13 kts 267°
2026-05-06 11:18 52.31498 4.75035 5 ft 15 kts 266°
2026-05-06 11:18 52.31491 4.74850 5 ft 17 kts 266°
2026-05-06 11:18 52.31485 4.74644 5 ft 19 kts 267°
2026-05-06 11:18 52.31478 4.74428 5 ft 19 kts 267°
2026-05-06 11:19 52.31470 4.74254 5 ft 13 kts 259°
2026-05-06 11:19 52.31417 4.74151 5 ft 12 kts 205°
2026-05-06 11:19 52.31327 4.74132 5 ft 14 kts 183°
2026-05-06 11:19 52.31217 4.74122 5 ft 17 kts 183°
2026-05-06 11:20 52.31090 4.74111 5 ft 20 kts 183°
2026-05-06 11:20 52.30947 4.74097 5 ft 22 kts 183°
2026-05-06 11:20 52.30788 4.74083 5 ft 24 kts 183°
2026-05-06 11:20 52.30616 4.74068 5 ft 24 kts 183°
2026-05-06 11:21 52.30465 4.74055 5 ft 18 kts 183°
2026-05-06 11:21 52.30350 4.74026 5 ft 17 kts 201°
2026-05-06 11:21 52.30252 4.73952 5 ft 14 kts 213°
2026-05-06 11:21 52.30193 4.73861 4 ft 11 kts 244°
2026-05-06 11:22 52.30197 4.73762 4 ft 7 kts 301°
2026-05-06 11:22 52.30241 4.73741 3 ft 8 kts
2026-05-06 11:22 52.30317 4.73748 2 ft 19 kts
2026-05-06 11:22 52.30667 4.73780 4 ft 79 kts
2026-05-06 11:23 52.31394 4.73849 4 ft 129 kts
2026-05-06 11:23 52.32424 4.73929 168 ft 156 kts
2026-05-06 11:23 52.33494 4.74057 739 ft 157 kts 11°
2026-05-06 11:23 52.34591 4.74646 1087 ft 176 kts 27°
2026-05-06 11:24 52.35713 4.75536 1385 ft 189 kts 27°
2026-05-06 11:24 52.36959 4.76518 1602 ft 209 kts 25°
2026-05-06 11:24 52.38258 4.77770 1902 ft 225 kts 40°
2026-05-06 11:24 52.39426 4.79557 2364 ft 234 kts 45°
2026-05-06 11:25 52.40189 4.80826 2727 ft 238 kts 45°
2026-05-06 11:25 52.41360 4.82780 3288 ft 242 kts 45°
2026-05-06 11:25 52.42584 4.84696 3824 ft 246 kts 39°
2026-05-06 11:25 52.44101 4.86007 4337 ft 250 kts 16°
2026-05-06 11:26 52.45846 4.86255 4902 ft 254 kts 359°
2026-05-06 11:26 52.47639 4.86079 5393 ft 261 kts 357°
2026-05-06 11:26 52.49465 4.85868 5908 ft 266 kts 357°
2026-05-06 11:26 52.51331 4.85671 6439 ft 270 kts 357°
2026-05-06 11:27 52.53203 4.85899 6970 ft 272 kts 15°
2026-05-06 11:27 52.54880 4.87310 7532 ft 274 kts 41°
2026-05-06 11:27 52.56171 4.89628 8127 ft 277 kts 51°
2026-05-06 11:27 52.57360 4.92153 8684 ft 281 kts 52°
2026-05-06 11:28 52.58556 4.94702 9273 ft 284 kts 51°
2026-05-06 11:28 52.59787 4.97293 9865 ft 288 kts 51°
2026-05-06 11:28 52.61042 4.99930 10235 ft 300 kts 51°
2026-05-06 11:28 52.62356 5.02687 10472 ft 315 kts 51°
2026-05-06 11:29 52.63747 5.05601 10722 ft 330 kts 51°
2026-05-06 11:29 52.65197 5.08641 10978 ft 344 kts 51°
2026-05-06 11:29 52.66690 5.11761 11261 ft 357 kts 51°
2026-05-06 11:29 52.68243 5.15012 11681 ft 364 kts 51°
2026-05-06 11:30 52.69792 5.18261 12173 ft 369 kts 51°
2026-05-06 11:30 52.71409 5.21661 12731 ft 373 kts 51°
2026-05-06 11:30 52.72996 5.25006 13244 ft 377 kts 51°
2026-05-06 11:30 52.74623 5.28439 13762 ft 381 kts 51°
2026-05-06 11:31 52.76259 5.31897 14230 ft 384 kts 51°
2026-05-06 11:31 52.77904 5.35379 14720 ft 386 kts 51°
2026-05-06 11:31 52.79571 5.38907 15194 ft 389 kts 51°
2026-05-06 11:31 52.81248 5.42467 15630 ft 393 kts 51°
2026-05-06 11:32 52.82931 5.46044 16125 ft 395 kts 51°
2026-05-06 11:32 52.84628 5.49655 16607 ft 398 kts 51°
2026-05-06 11:32 52.86329 5.53281 17067 ft 401 kts 51°
2026-05-06 11:32 52.88020 5.56891 17514 ft 404 kts 51°
2026-05-06 11:33 52.89750 5.60591 17989 ft 407 kts 51°
2026-05-06 11:33 52.91491 5.64317 18430 ft 410 kts 51°
2026-05-06 11:33 52.93244 5.68076 18838 ft 414 kts 51°
2026-05-06 11:33 52.95013 5.71872 19256 ft 417 kts 51°
2026-05-06 11:34 52.96788 5.75684 19689 ft 420 kts 52°
2026-05-06 11:34 52.98583 5.79548 20125 ft 423 kts 52°
2026-05-06 11:34 53.00375 5.83411 20557 ft 426 kts 52°
2026-05-06 11:34 53.02195 5.87342 21003 ft 429 kts 52°
2026-05-06 11:35 53.04021 5.91292 21454 ft 431 kts 52°
2026-05-06 11:35 53.05843 5.95240 21879 ft 435 kts 52°
2026-05-06 11:35 53.07695 5.99260 22328 ft 438 kts 52°
2026-05-06 11:35 53.09552 6.03297 22791 ft 441 kts 52°
2026-05-06 11:36 53.11420 6.07364 23230 ft 444 kts 52°
2026-05-06 11:36 53.13300 6.11464 23646 ft 447 kts 52°
2026-05-06 11:36 53.15189 6.15589 24025 ft 450 kts 52°
2026-05-06 11:36 53.17093 6.19753 24393 ft 452 kts 52°
2026-05-06 11:37 53.19001 6.23933 24785 ft 455 kts 53°
2026-05-06 11:37 53.20921 6.28146 25160 ft 457 kts 53°
2026-05-06 11:37 53.22851 6.32388 25554 ft 460 kts 53°
2026-05-06 11:37 53.24793 6.36665 25921 ft 462 kts 53°
2026-05-06 11:38 53.26735 6.40948 26300 ft 464 kts 53°
2026-05-06 11:38 53.28686 6.45260 26671 ft 467 kts 53°
2026-05-06 11:38 53.30650 6.49605 27029 ft 469 kts 53°
2026-05-06 11:38 53.32617 6.53968 27411 ft 471 kts 53°
2026-05-06 11:39 53.34663 6.58277 27783 ft 474 kts 48°
2026-05-06 11:39 53.36937 6.62280 28151 ft 476 kts 45°
2026-05-06 11:39 53.39273 6.66216 28514 ft 478 kts 45°
2026-05-06 11:39 53.41657 6.70151 28849 ft 481 kts 44°
2026-05-06 11:40 53.44060 6.74081 29205 ft 483 kts 44°
2026-05-06 11:40 53.46439 6.77967 29539 ft 485 kts 44°
2026-05-06 11:40 53.48894 6.81988 29872 ft 487 kts 44°
2026-05-06 11:40 53.51219 6.85809 30141 ft 489 kts 45°
2026-05-06 11:41 53.53725 6.89942 30417 ft 491 kts 45°
2026-05-06 11:41 53.56167 6.93982 30665 ft 493 kts 45°
2026-05-06 11:41 53.58617 6.98048 30917 ft 495 kts 45°
2026-05-06 11:41 53.61077 7.02137 31170 ft 497 kts 45°
2026-05-06 11:42 53.63538 7.06235 31392 ft 499 kts 45°
2026-05-06 11:42 53.66008 7.10356 31628 ft 500 kts 45°
2026-05-06 11:42 53.68484 7.14493 31860 ft 502 kts 45°
2026-05-06 11:42 53.70971 7.18655 32059 ft 504 kts 45°
2026-05-06 11:43 53.73456 7.22821 32301 ft 504 kts 45°
2026-05-06 11:43 53.75941 7.26994 32617 ft 504 kts 45°
2026-05-06 11:43 53.78424 7.31172 32918 ft 503 kts 45°
2026-05-06 11:44 53.83352 7.39484 33482 ft 502 kts 45°
2026-05-06 11:44 53.85825 7.43668 33767 ft 502 kts 45°
2026-05-06 11:44 53.88295 7.47853 34011 ft 501 kts 45°
2026-05-06 11:44 53.90759 7.52034 34235 ft 501 kts 45°
2026-05-06 11:45 53.93217 7.56215 34422 ft 502 kts 45°
2026-05-06 11:45 53.95682 7.60414 34600 ft 502 kts 45°
2026-05-06 11:45 53.98149 7.64623 34783 ft 503 kts 45°
2026-05-06 11:45 54.00621 7.68849 34961 ft 503 kts 45°
2026-05-06 11:46 54.03080 7.73060 35155 ft 503 kts 45°
2026-05-06 11:46 54.05546 7.77291 35306 ft 504 kts 45°
2026-05-06 11:46 54.08022 7.81547 35470 ft 504 kts 45°
2026-05-06 11:46 54.10495 7.85804 35645 ft 505 kts 45°
2026-05-06 11:47 54.12961 7.90058 35802 ft 505 kts 45°
2026-05-06 11:47 54.15400 7.94271 35960 ft 506 kts 45°
2026-05-06 11:47 54.17872 7.98552 36105 ft 506 kts 45°
2026-05-06 11:47 54.20346 8.02841 36259 ft 506 kts 45°
2026-05-06 11:48 54.22798 8.07101 36400 ft 507 kts 45°
2026-05-06 11:48 54.25286 8.11431 36537 ft 507 kts 45°
2026-05-06 11:48 54.27753 8.15733 36680 ft 508 kts 45°
2026-05-06 11:48 54.30234 8.20067 36812 ft 508 kts 45°
2026-05-06 11:49 54.35197 8.28760 36908 ft 513 kts 45°
2026-05-06 11:49 54.40201 8.37559 36906 ft 516 kts 46°
2026-05-06 11:50 54.45195 8.46371 36906 ft 516 kts 46°
2026-05-06 11:50 54.50208 8.55251 36902 ft 516 kts 46°
2026-05-06 11:51 54.55207 8.64138 36906 ft 516 kts 46°
2026-05-06 11:51 54.60195 8.73040 36907 ft 517 kts 46°
2026-05-06 11:52 54.65184 8.81978 36906 ft 517 kts 46°
2026-05-06 11:52 54.70167 8.90938 36905 ft 517 kts 46°
2026-05-06 11:53 54.75118 8.99873 36906 ft 518 kts 46°
2026-05-06 11:53 54.80105 9.08909 36905 ft 518 kts 46°
2026-05-06 11:54 54.84943 9.18173 36904 ft 518 kts 54°
2026-05-06 11:54 54.88522 9.28992 36911 ft 517 kts 65°
2026-05-06 11:55 54.91630 9.40280 36923 ft 517 kts 66°
2026-05-06 11:55 54.94655 9.51625 36911 ft 517 kts 66°
2026-05-06 11:56 54.97686 9.62979 36908 ft 517 kts 66°
2026-05-06 11:56 55.00704 9.74268 36908 ft 518 kts 66°
2026-05-06 11:57 55.03746 9.85677 36910 ft 518 kts 66°
2026-05-06 11:57 55.06773 9.97086 36911 ft 518 kts 66°
2026-05-06 11:58 55.09750 10.08369 36910 ft 518 kts 66°
2026-05-06 11:58 55.12797 10.19972 36910 ft 518 kts 67°
2026-05-06 11:59 55.15787 10.31423 36915 ft 517 kts 67°
2026-05-06 11:59 55.18718 10.42702 36918 ft 517 kts 67°
2026-05-06 12:00 55.21713 10.54287 36910 ft 517 kts 67°
2026-05-06 12:00 55.24626 10.65614 36916 ft 517 kts 67°
2026-05-06 12:01 55.27612 10.77282 36912 ft 517 kts 68°
2026-05-06 12:01 55.30547 10.88817 36909 ft 517 kts 68°
2026-05-06 12:02 55.33428 11.00193 36908 ft 517 kts 68°
2026-05-06 12:02 55.36304 11.11609 36906 ft 517 kts 68°
2026-05-06 12:03 55.39214 11.23220 36906 ft 517 kts 68°
2026-05-06 12:03 55.42103 11.34806 36908 ft 517 kts 68°
2026-05-06 12:04 55.44990 11.46452 36904 ft 517 kts 68°
2026-05-06 12:04 55.47814 11.57897 36913 ft 517 kts 68°
2026-05-06 12:05 55.50676 11.69561 36915 ft 517 kts 68°
2026-05-06 12:05 55.53525 11.81233 36911 ft 517 kts 68°
2026-05-06 12:06 55.56378 11.92983 36911 ft 517 kts 69°
2026-05-06 12:06 55.59201 12.04674 36911 ft 517 kts 69°
2026-05-06 12:07 55.61350 12.13610 36910 ft 517 kts 69°
2026-05-06 12:07 55.64152 12.25326 36914 ft 517 kts 69°
2026-05-06 12:08 55.66939 12.37041 36914 ft 516 kts 69°
2026-05-06 12:08 55.69718 12.48787 36939 ft 516 kts 69°
2026-05-06 12:09 55.72468 12.60471 36938 ft 516 kts 69°
2026-05-06 12:09 55.75219 12.72228 36938 ft 516 kts 69°
2026-05-06 12:10 55.77968 12.84036 36934 ft 516 kts 70°
2026-05-06 12:10 55.80701 12.95840 36935 ft 516 kts 70°
2026-05-06 12:11 55.82969 13.05686 36936 ft 517 kts 70°
2026-05-06 12:11 55.85678 13.17513 36937 ft 517 kts 70°
2026-05-06 12:12 55.88380 13.29374 36935 ft 517 kts 70°
2026-05-06 12:12 55.91074 13.41263 36935 ft 517 kts 70°
2026-05-06 12:13 55.93754 13.53160 36935 ft 517 kts 70°
2026-05-06 12:13 55.96424 13.65078 36937 ft 517 kts 70°
2026-05-06 12:14 55.99083 13.77017 36937 ft 517 kts 70°
2026-05-06 12:14 56.01715 13.88901 36939 ft 518 kts 71°
2026-05-06 12:15 56.04371 14.00960 36938 ft 518 kts 71°
2026-05-06 12:15 56.06983 14.12891 36939 ft 518 kts 71°
2026-05-06 12:16 56.09601 14.24920 36936 ft 518 kts 71°
2026-05-06 12:16 56.12204 14.36951 36937 ft 518 kts 71°
2026-05-06 12:17 56.14797 14.49001 36940 ft 518 kts 71°
2026-05-06 12:17 56.17378 14.61066 36938 ft 518 kts 71°
2026-05-06 12:18 56.19947 14.73148 36933 ft 518 kts 71°
2026-05-06 12:18 56.22507 14.85260 36936 ft 518 kts 71°
2026-05-06 12:19 56.25055 14.97388 36938 ft 518 kts 72°
2026-05-06 12:19 56.27572 15.09439 36938 ft 518 kts 72°
2026-05-06 12:20 56.30095 15.21593 36940 ft 519 kts 72°
2026-05-06 12:20 56.32613 15.33790 36938 ft 519 kts 72°
2026-05-06 12:21 56.35118 15.46001 36938 ft 519 kts 72°
2026-05-06 12:21 56.37608 15.58219 36944 ft 519 kts 72°
2026-05-06 12:22 56.40086 15.70451 36944 ft 519 kts 72°
2026-05-06 12:22 56.42558 15.82728 36953 ft 520 kts 72°
2026-05-06 12:23 56.45016 15.95011 36960 ft 520 kts 72°
2026-05-06 12:23 56.47462 16.07307 36960 ft 520 kts 73°
2026-05-06 12:24 56.49882 16.19553 36962 ft 520 kts 73°
2026-05-06 12:24 56.52306 16.31897 36965 ft 521 kts 73°
2026-05-06 12:25 56.54726 16.44298 36965 ft 521 kts 73°
2026-05-06 12:25 56.57128 16.56693 36964 ft 521 kts 73°
2026-05-06 12:26 56.59523 16.69123 36963 ft 522 kts 73°
2026-05-06 12:26 56.61905 16.81567 36963 ft 522 kts 73°
2026-05-06 12:27 56.64277 16.94040 36964 ft 522 kts 73°
2026-05-06 12:27 56.66620 17.06445 36963 ft 522 kts 73°
2026-05-06 12:28 56.68969 17.18960 36961 ft 523 kts 73°
2026-05-06 12:28 56.71307 17.31496 36964 ft 523 kts 74°
2026-05-06 12:29 56.73636 17.44069 36967 ft 524 kts 74°
2026-05-06 12:29 56.75951 17.56654 36966 ft 524 kts 74°
2026-05-06 12:30 56.78259 17.69279 36964 ft 524 kts 74°
2026-05-06 12:30 56.80552 17.81913 36963 ft 525 kts 74°
2026-05-06 12:31 56.82834 17.94570 36969 ft 525 kts 75°
2026-05-06 12:31 56.85092 18.07179 36969 ft 525 kts 75°
2026-05-06 12:32 56.87349 18.19872 36968 ft 526 kts 75°
2026-05-06 12:32 56.89595 18.32588 36971 ft 526 kts 75°
2026-05-06 12:33 56.91837 18.45369 36972 ft 526 kts 75°
2026-05-06 12:33 56.94062 18.58147 36968 ft 526 kts 75°
2026-05-06 12:34 56.96276 18.70947 36974 ft 527 kts 75°
2026-05-06 12:34 56.98479 18.83779 36975 ft 527 kts 75°
2026-05-06 12:35 57.00670 18.96631 36970 ft 528 kts 75°
2026-05-06 12:35 57.02835 19.09423 36972 ft 528 kts 75°
2026-05-06 12:36 57.05001 19.22312 36969 ft 528 kts 76°
2026-05-06 12:36 57.07155 19.35230 36973 ft 529 kts 76°
2026-05-06 12:37 57.09297 19.48165 36978 ft 529 kts 76°
2026-05-06 12:37 57.11343 19.60609 36972 ft 529 kts 76°
2026-05-06 12:38 57.13460 19.73580 36982 ft 530 kts 76°
2026-05-06 12:38 57.15567 19.86585 36979 ft 530 kts 76°
2026-05-06 12:39 57.18306 19.99240 36977 ft 533 kts 67°
2026-05-06 12:39 57.21501 20.11595 36970 ft 534 kts 66°
2026-05-06 12:40 57.24732 20.23849 36975 ft 535 kts 66°
2026-05-06 12:40 57.27967 20.36212 36974 ft 535 kts 66°
2026-05-06 12:41 57.31194 20.48668 36984 ft 536 kts 66°
2026-05-06 12:41 57.34396 20.61123 36984 ft 536 kts 66°
2026-05-06 12:42 57.37589 20.73614 36984 ft 537 kts 66°
2026-05-06 12:42 57.40777 20.86155 36981 ft 537 kts 66°
2026-05-06 12:43 57.43951 20.98710 36985 ft 538 kts 66°
2026-05-06 12:43 57.47116 21.11296 36988 ft 538 kts 66°
2026-05-06 12:44 57.50260 21.23874 36994 ft 539 kts 66°
2026-05-06 12:44 57.53408 21.36540 36985 ft 539 kts 66°
2026-05-06 12:45 57.56550 21.49252 36995 ft 540 kts 66°
2026-05-06 12:46 57.61246 21.68394 37001 ft 541 kts 66°
2026-05-06 12:46 57.64341 21.81102 36990 ft 541 kts 66°
2026-05-06 12:47 57.67376 21.93636 37004 ft 542 kts 67°
2026-05-06 12:47 57.70474 22.06507 37007 ft 542 kts 67°
2026-05-06 12:48 57.73559 22.19398 37007 ft 543 kts 67°
2026-05-06 12:48 57.76632 22.32312 37010 ft 543 kts 67°
2026-05-06 12:49 57.79697 22.45276 37014 ft 544 kts 67°
2026-05-06 12:49 57.82749 22.58256 37012 ft 545 kts 67°
2026-05-06 12:50 57.85796 22.71300 37012 ft 545 kts 67°
2026-05-06 12:50 57.88804 22.84301 37017 ft 546 kts 68°
2026-05-06 12:51 57.91709 22.97536 37017 ft 547 kts 69°
2026-05-06 12:51 57.94564 23.10814 37011 ft 547 kts 69°
2026-05-06 12:52 57.97435 23.24123 37011 ft 547 kts 68°
2026-05-06 12:52 58.00356 23.37380 37013 ft 548 kts 68°
2026-05-06 12:53 58.03262 23.50584 37011 ft 548 kts 68°
2026-05-06 12:53 58.06164 23.63913 37014 ft 549 kts 68°
2026-05-06 12:54 58.09047 23.77276 37010 ft 549 kts 68°
2026-05-06 12:54 58.11918 23.90682 37008 ft 550 kts 68°
2026-05-06 12:55 58.14761 24.04039 37007 ft 550 kts 68°
2026-05-06 12:55 58.17624 24.17581 37006 ft 550 kts 68°
2026-05-06 12:56 58.20437 24.30968 37010 ft 551 kts 69°
2026-05-06 12:56 58.23256 24.44475 37013 ft 551 kts 69°
2026-05-06 12:57 58.25955 24.57493 37016 ft 551 kts 69°
2026-05-06 12:57 58.28282 24.68786 37012 ft 552 kts 69°
2026-05-06 12:58 58.31070 24.82395 37008 ft 552 kts 69°
2026-05-06 12:58 58.33833 24.95974 37000 ft 552 kts 69°
2026-05-06 12:59 58.36590 25.09621 36992 ft 552 kts 69°
2026-05-06 12:59 58.39322 25.23231 36991 ft 552 kts 69°
2026-05-06 13:00 58.42053 25.36933 36992 ft 553 kts 69°
2026-05-06 13:00 58.44783 25.50725 36993 ft 553 kts 69°
2026-05-06 13:01 58.47481 25.64453 36988 ft 553 kts 69°
2026-05-06 13:01 58.50170 25.78228 36991 ft 553 kts 69°
2026-05-06 13:02 58.52829 25.91944 36989 ft 553 kts 69°
2026-05-06 13:02 58.55505 26.05850 36991 ft 553 kts 69°
2026-05-06 13:03 58.58141 26.19642 36991 ft 553 kts 69°
2026-05-06 13:03 58.60774 26.33519 36992 ft 554 kts 70°
2026-05-06 13:04 58.63398 26.47451 36996 ft 554 kts 70°
2026-05-06 13:04 58.65999 26.61358 36993 ft 553 kts 70°
2026-05-06 13:05 58.68577 26.75243 36998 ft 553 kts 70°
2026-05-06 13:05 58.71149 26.89200 36999 ft 553 kts 70°
2026-05-06 13:06 58.73696 27.03122 37007 ft 553 kts 70°
2026-05-06 13:06 58.76235 27.17100 37014 ft 553 kts 70°
2026-05-06 13:07 58.78768 27.31155 37017 ft 553 kts 70°
2026-05-06 13:07 58.81698 27.44747 37020 ft 552 kts 63°
2026-05-06 13:08 58.85038 27.58157 37020 ft 552 kts 62°
2026-05-06 13:08 58.88412 27.71522 37016 ft 552 kts 62°
2026-05-06 13:09 58.91748 27.84825 37019 ft 553 kts 62°
2026-05-06 13:09 58.95082 27.98246 37016 ft 553 kts 62°
2026-05-06 13:10 58.98403 28.11716 37020 ft 553 kts 62°
2026-05-06 13:10 59.01710 28.25219 37018 ft 554 kts 62°
2026-05-06 13:11 59.04997 28.38716 37019 ft 554 kts 62°
2026-05-06 13:11 59.08274 28.52258 37019 ft 554 kts 62°
2026-05-06 13:12 59.11556 28.65901 37017 ft 554 kts 63°
2026-05-06 13:12 59.14805 28.79494 37015 ft 554 kts 63°
2026-05-06 13:13 59.18040 28.93086 37015 ft 554 kts 63°
2026-05-06 13:13 59.21256 29.06713 37009 ft 555 kts 63°
2026-05-06 13:14 59.24462 29.20384 37007 ft 555 kts 63°
2026-05-06 13:14 59.27657 29.34089 37006 ft 555 kts 63°
2026-05-06 13:15 59.30836 29.47810 36999 ft 555 kts 63°
2026-05-06 13:15 59.34016 29.61624 36997 ft 555 kts 63°
2026-05-06 13:16 59.37174 29.75432 36993 ft 556 kts 63°
2026-05-06 13:16 59.40342 29.89371 36994 ft 556 kts 64°
2026-05-06 13:17 59.43458 30.03174 36990 ft 556 kts 64°
2026-05-06 13:17 59.46583 30.17110 36991 ft 557 kts 64°
2026-05-06 13:18 59.49697 30.31087 36988 ft 557 kts 64°
2026-05-06 13:18 59.52773 30.44984 36990 ft 557 kts 64°
2026-05-06 13:19 59.55859 30.59021 36988 ft 557 kts 64°
2026-05-06 13:19 59.58910 30.72992 36990 ft 557 kts 64°
2026-05-06 13:20 59.61978 30.87134 36992 ft 557 kts 64°
2026-05-06 13:20 59.65000 31.01160 36989 ft 557 kts 64°
2026-05-06 13:21 59.67918 31.15409 36992 ft 559 kts 71°
2026-05-06 13:21 59.69887 31.30321 36991 ft 560 kts 75°
2026-05-06 13:22 59.71647 31.45383 36992 ft 561 kts 76°
2026-05-06 13:22 59.73357 31.60417 36986 ft 561 kts 76°
2026-05-06 13:23 59.75066 31.75472 36987 ft 561 kts 76°
2026-05-06 13:23 59.76774 31.90581 36974 ft 561 kts 76°
2026-05-06 13:24 59.78467 32.05671 36988 ft 561 kts 76°
2026-05-06 13:24 59.80145 32.20788 36976 ft 561 kts 76°
2026-05-06 13:25 59.81798 32.35892 36989 ft 561 kts 77°
2026-05-06 13:25 59.83816 32.50923 36986 ft 560 kts 71°
2026-05-06 13:26 59.86081 32.65736 36978 ft 560 kts 71°
2026-05-06 13:26 59.88287 32.80623 36978 ft 560 kts 72°
2026-05-06 13:27 59.90394 32.95439 36983 ft 560 kts 72°
2026-05-06 13:27 59.92479 33.10409 36992 ft 560 kts 72°
2026-05-06 13:27 59.93286 33.18134 36978 ft 561 kts 83°
2026-05-06 13:28 59.93592 33.25787 36973 ft 561 kts 87°
2026-05-06 13:28 59.93883 33.41378 36986 ft 561 kts 89°
2026-05-06 13:29 59.94041 33.56907 36976 ft 561 kts 89°
2026-05-06 13:29 59.94188 33.72467 36975 ft 561 kts 89°
2026-05-06 13:30 59.94338 33.88073 36970 ft 561 kts 89°
2026-05-06 13:30 59.94478 34.03607 36965 ft 560 kts 89°
2026-05-06 13:31 59.94599 34.19029 36961 ft 560 kts 89°
2026-05-06 13:31 59.94702 34.34554 36956 ft 560 kts 90°
2026-05-06 13:32 59.94787 34.50129 36967 ft 559 kts 90°
2026-05-06 13:32 59.94852 34.65584 36966 ft 559 kts 90°
2026-05-06 13:33 59.94900 34.81133 36959 ft 559 kts 90°
2026-05-06 13:33 59.94929 34.96691 36955 ft 559 kts 90°
2026-05-06 13:34 59.94940 35.12072 36947 ft 559 kts 90°
2026-05-06 13:34 59.94986 35.27632 36939 ft 558 kts 86°
2026-05-06 13:35 59.96248 35.42771 36942 ft 556 kts 76°
2026-05-06 13:35 59.97968 35.57816 36943 ft 556 kts 75°
2026-05-06 13:36 59.99742 35.72885 36935 ft 556 kts 75°
2026-05-06 13:36 60.01479 35.87956 36936 ft 556 kts 76°
2026-05-06 13:37 60.03181 36.03053 36915 ft 556 kts 76°
2026-05-06 13:37 60.04860 36.18172 36930 ft 556 kts 76°
2026-05-06 13:38 60.06509 36.33175 36924 ft 555 kts 76°
2026-05-06 13:38 60.08152 36.48291 36901 ft 555 kts 77°
2026-05-06 13:39 60.09777 36.63404 36913 ft 554 kts 77°
2026-05-06 13:39 60.11386 36.78540 36909 ft 554 kts 77°
2026-05-06 13:40 60.12978 36.93657 36903 ft 554 kts 77°
2026-05-06 13:40 60.14549 37.08783 36901 ft 553 kts 77°
2026-05-06 13:41 60.16102 37.23910 36903 ft 553 kts 77°
2026-05-06 13:41 60.17639 37.39053 36897 ft 553 kts 78°
2026-05-06 13:42 60.19093 37.53554 36895 ft 552 kts 78°
2026-05-06 13:42 60.20584 37.68593 36891 ft 552 kts 78°
2026-05-06 13:43 60.22066 37.83726 36888 ft 552 kts 78°
2026-05-06 13:43 60.23530 37.98886 36892 ft 552 kts 78°
2026-05-06 13:44 60.24978 38.14064 36890 ft 552 kts 78°
2026-05-06 13:44 60.26409 38.29235 36875 ft 551 kts 78°
2026-05-06 13:45 60.27838 38.44403 36868 ft 551 kts 79°
2026-05-06 13:45 60.29954 38.67203 36883 ft 551 kts 79°
2026-05-06 13:46 60.31329 38.82303 36880 ft 551 kts 79°
2026-05-06 13:46 60.32694 38.97493 36876 ft 550 kts 79°
2026-05-06 13:47 60.34043 39.12710 36877 ft 550 kts 79°
2026-05-06 13:47 60.35095 39.24725 36881 ft 550 kts 80°
2026-05-06 13:48 60.36417 39.40014 36878 ft 550 kts 80°
2026-05-06 13:48 60.37706 39.55129 36876 ft 550 kts 80°
2026-05-06 13:49 60.38994 39.70458 36881 ft 550 kts 80°
2026-05-06 13:49 60.40256 39.85698 36875 ft 549 kts 81°
2026-05-06 13:50 60.41504 40.00983 36872 ft 549 kts 81°
2026-05-06 13:50 60.42722 40.16129 36869 ft 549 kts 81°
2026-05-06 13:51 60.43930 40.31366 36864 ft 549 kts 81°
2026-05-06 13:51 60.45126 40.46702 36863 ft 549 kts 81°
2026-05-06 13:52 60.46297 40.61933 36859 ft 549 kts 82°
2026-05-06 13:52 60.47455 40.77244 36853 ft 549 kts 82°
2026-05-06 13:53 60.48599 40.92625 36848 ft 549 kts 82°
2026-05-06 13:53 60.49710 41.07865 36849 ft 549 kts 82°
2026-05-06 13:54 60.50789 41.23233 36845 ft 549 kts 82°
2026-05-06 13:54 60.51837 41.38485 36843 ft 549 kts 83°
2026-05-06 13:55 60.52878 41.53828 36840 ft 548 kts 83°
2026-05-06 13:55 60.53907 41.69229 36837 ft 549 kts 83°
2026-05-06 13:56 60.54916 41.84608 36833 ft 548 kts 83°
2026-05-06 13:56 60.55900 41.99887 36830 ft 548 kts 83°
2026-05-06 13:57 60.56877 42.15330 36824 ft 548 kts 83°
2026-05-06 13:57 60.57827 42.30655 36823 ft 548 kts 84°
2026-05-06 13:58 60.58759 42.46032 36821 ft 549 kts 84°
2026-05-06 13:58 60.59676 42.61443 36820 ft 549 kts 84°
2026-05-06 13:59 60.60573 42.76823 36820 ft 549 kts 84°
2026-05-06 13:59 60.61457 42.92285 36815 ft 549 kts 84°
2026-05-06 14:00 60.62320 43.07699 36813 ft 549 kts 84°
2026-05-06 14:00 60.63166 43.23116 36808 ft 549 kts 84°
2026-05-06 14:01 60.63999 43.38655 36809 ft 549 kts 84°
2026-05-06 14:01 60.64809 43.54098 36806 ft 549 kts 85°
2026-05-06 14:02 60.65601 43.69534 36803 ft 549 kts 85°
2026-05-06 14:02 60.66379 43.85050 36801 ft 548 kts 85°
2026-05-06 14:03 60.67148 44.00439 36798 ft 548 kts 85°
2026-05-06 14:03 60.67915 44.15970 36798 ft 548 kts 85°
2026-05-06 14:04 60.68659 44.31467 36794 ft 548 kts 85°
2026-05-06 14:04 60.69377 44.46852 36793 ft 548 kts 85°
2026-05-06 14:05 60.70084 44.62403 36790 ft 547 kts 86°
2026-05-06 14:05 60.70769 44.77850 36786 ft 547 kts 86°
2026-05-06 14:06 60.71440 44.93387 36781 ft 547 kts 86°
2026-05-06 14:06 60.72087 45.08805 36776 ft 547 kts 86°
2026-05-06 14:07 60.72725 45.24378 36775 ft 547 kts 86°
2026-05-06 14:07 60.73341 45.39771 36771 ft 547 kts 86°
2026-05-06 14:08 60.73948 45.55184 36767 ft 547 kts 86°
2026-05-06 14:08 60.74542 45.70757 36762 ft 546 kts 87°
2026-05-06 14:09 60.75113 45.86253 36762 ft 546 kts 87°
2026-05-06 14:09 60.75662 46.01596 36754 ft 545 kts 87°
2026-05-06 14:10 60.76200 46.17102 36749 ft 545 kts 87°
2026-05-06 14:10 60.76720 46.32617 36748 ft 545 kts 87°
2026-05-06 14:11 60.77165 46.47996 36747 ft 544 kts 88°
2026-05-06 14:11 60.77535 46.63589 36745 ft 544 kts 89°
2026-05-06 14:12 60.77905 46.78997 36741 ft 544 kts 89°
2026-05-06 14:12 60.78271 46.94407 36741 ft 544 kts 89°
2026-05-06 14:13 60.78623 47.09787 36737 ft 543 kts 89°
2026-05-06 14:13 60.78962 47.25381 36733 ft 543 kts 89°
2026-05-06 14:14 60.79279 47.40799 36732 ft 543 kts 89°
2026-05-06 14:14 60.79580 47.56260 36727 ft 543 kts 89°
2026-05-06 14:15 60.79861 47.71647 36723 ft 543 kts 89°
2026-05-06 14:15 60.80125 47.87057 36722 ft 543 kts 89°
2026-05-06 14:16 60.80372 48.02492 36717 ft 543 kts 90°
2026-05-06 14:16 60.80602 48.17935 36713 ft 543 kts 90°
2026-05-06 14:17 60.80813 48.33367 36714 ft 543 kts 90°
2026-05-06 14:17 60.81013 48.48816 36707 ft 543 kts 90°
2026-05-06 14:18 60.81205 48.64301 36704 ft 542 kts 90°
2026-05-06 14:18 60.81378 48.79689 36703 ft 542 kts 90°
2026-05-06 14:19 60.81534 48.95155 36701 ft 542 kts 90°
2026-05-06 14:19 60.81670 49.10544 36699 ft 542 kts 90°
2026-05-06 14:20 60.81790 49.26042 36701 ft 541 kts 90°
2026-05-06 14:20 60.81892 49.41482 36697 ft 541 kts 90°
2026-05-06 14:21 60.81975 49.56804 36696 ft 541 kts 91°
2026-05-06 14:21 60.82041 49.72225 36696 ft 541 kts 91°
2026-05-06 14:22 60.82090 49.87752 36697 ft 541 kts 91°
2026-05-06 14:22 60.82125 50.03099 36694 ft 541 kts 91°
2026-05-06 14:23 60.82152 50.18498 36693 ft 542 kts 91°
2026-05-06 14:23 60.82161 50.33960 36688 ft 541 kts 91°
2026-05-06 14:24 60.82151 50.49448 36696 ft 541 kts 91°
2026-05-06 14:24 60.82122 50.64774 36695 ft 541 kts 91°
2026-05-06 14:25 60.82076 50.80253 36679 ft 541 kts 92°
2026-05-06 14:25 60.82012 50.95568 36678 ft 540 kts 92°
2026-05-06 14:26 60.81931 51.11030 36674 ft 540 kts 92°
2026-05-06 14:26 60.81833 51.26338 36678 ft 540 kts 92°
2026-05-06 14:27 60.81729 51.41777 36674 ft 539 kts 92°
2026-05-06 14:27 60.81613 51.57107 36669 ft 539 kts 92°
2026-05-06 14:28 60.81478 51.72457 36668 ft 539 kts 92°
2026-05-06 14:28 60.81326 51.87764 36667 ft 538 kts 92°
2026-05-06 14:29 60.81156 52.03138 36665 ft 538 kts 93°
2026-05-06 14:29 60.80969 52.18453 36662 ft 538 kts 93°
2026-05-06 14:30 60.80765 52.33722 36661 ft 538 kts 93°
2026-05-06 14:30 60.80544 52.48983 36657 ft 538 kts 93°
2026-05-06 14:31 60.80304 52.64356 36658 ft 538 kts 93°
2026-05-06 14:31 60.80049 52.79591 36657 ft 538 kts 93°
2026-05-06 14:32 60.79772 52.94980 36655 ft 538 kts 94°
2026-05-06 14:32 60.79482 53.10213 36653 ft 537 kts 94°
2026-05-06 14:33 60.79175 53.25451 36657 ft 537 kts 94°
2026-05-06 14:33 60.78849 53.40731 36657 ft 537 kts 94°
2026-05-06 14:34 60.78563 53.53505 36653 ft 537 kts 94°
2026-05-06 14:34 60.78210 53.68710 36659 ft 537 kts 94°
2026-05-06 14:35 60.77824 53.83934 36659 ft 536 kts 94°
2026-05-06 14:35 60.77411 53.99216 36655 ft 536 kts 94°
2026-05-06 14:36 60.76987 54.14390 36663 ft 536 kts 94°
2026-05-06 14:36 60.76547 54.29619 36664 ft 536 kts 95°
2026-05-06 14:37 60.76093 54.44789 36653 ft 536 kts 95°
2026-05-06 14:37 60.75618 54.60041 36661 ft 536 kts 95°
2026-05-06 14:38 60.75126 54.75281 36667 ft 535 kts 95°
2026-05-06 14:38 60.74619 54.90446 36674 ft 535 kts 95°
2026-05-06 14:39 60.74098 55.05524 36664 ft 535 kts 95°
2026-05-06 14:39 60.73555 55.20740 36678 ft 535 kts 95°
2026-05-06 14:40 60.72998 55.35863 36670 ft 535 kts 95°
2026-05-06 14:40 60.72424 55.50990 36673 ft 534 kts 95°
2026-05-06 14:41 60.71833 55.66094 36679 ft 534 kts 96°
2026-05-06 14:41 60.71222 55.81184 36686 ft 533 kts 96°
2026-05-06 14:42 60.70568 55.96330 36686 ft 533 kts 96°
2026-05-06 14:42 60.69898 56.11416 36692 ft 533 kts 96°
2026-05-06 14:43 60.69219 56.26432 36692 ft 533 kts 96°
2026-05-06 14:43 60.68523 56.41474 36694 ft 533 kts 96°
2026-05-06 14:44 60.67812 56.56470 36695 ft 532 kts 96°
2026-05-06 14:45 60.66713 56.78998 36703 ft 532 kts 97°
2026-05-06 14:45 60.65956 56.94060 36710 ft 532 kts 97°
2026-05-06 14:46 60.65186 57.09056 36706 ft 532 kts 97°
2026-05-06 14:46 60.64403 57.23947 36708 ft 531 kts 97°
2026-05-06 14:47 60.63599 57.38920 36712 ft 531 kts 97°
2026-05-06 14:47 60.62784 57.53813 36714 ft 531 kts 97°
2026-05-06 14:48 60.61972 57.68789 36718 ft 531 kts 97°
2026-05-06 14:48 60.61154 57.83707 36718 ft 530 kts 97°
2026-05-06 14:49 60.60312 57.98656 36719 ft 530 kts 97°
2026-05-06 14:49 60.59456 58.13498 36718 ft 530 kts 97°
2026-05-06 14:50 60.58581 58.28377 36723 ft 530 kts 98°
2026-05-06 14:50 60.57690 58.43225 36716 ft 530 kts 98°
2026-05-06 14:51 60.56777 58.58163 36728 ft 529 kts 98°
2026-05-06 14:51 60.55857 58.72944 36724 ft 529 kts 98°
2026-05-06 14:52 60.54914 58.87827 36724 ft 529 kts 98°